Regional Weather Roundup
Issued by NWS Burlington, VT

Home | Current Version | Previous Version | Text Only | Print | Product List | Glossary On
Versions: 1 2 3 4 5 6 7 8 9 10 11 12 13 14 15 16 17 18 19 20 21 22 23 24 25 26 27 28 29 30 31 32 33 34 35 36 37 38 39 40 41 42 43 44 45 46 47 48 49 50
000
ASUS41 KBTV 031130
RWRBTV
VERMONT REGIONAL WEATHER ROUNDUP
NATIONAL WEATHER SERVICE BURLINGTON VT
700 AM EDT SUN MAY 03 2015

NOTE: "FAIR" INDICATES FEW OR NO CLOUDS BELOW 12,000 FEET WITH NO
SIGNIFICANT WEATHER AND/OR OBSTRUCTIONS TO VISIBILITY.

* THESE REPORTS ARE NOT UNDER NWS QUALITY CONTROL AND/OR DO NOT
  REPORT WEATHER SUCH AS PRECIPITATION AND FOG.

VTZ001>019-031200-
_____VERMONT_____


CITY           SKY/WX    TMP DP  RH WIND       PRES   REMARKS
BURLINGTON     PTSUNNY   46  37  71 SE5       29.99R
MONTPELIER     CLOUDY    42  35  76 CALM      30.04R
MORRISVILLE    MOSUNNY   38  34  85 CALM      30.03R
ST. JOHNSBURY*   N/A     38  34  85 MISG      30.02R
LYNDONVILLE*   PTSUNNY   44  33  64 CALM      30.04R
MIDDLEBURY*      N/A     51  39  64 S5        30.01R
RUTLAND*       PTSUNNY   52  34  50 SE8       30.03R
SPRINGFIELD    MOSUNNY   41  39  93 CALM      30.04R
HIGHGATE*        N/A     47  37  70 SE3       29.98R
NEWPORT*       PTSUNNY   43  35  72 S3        30.01R
BENNINGTON     SUNNY     45  39  79 CALM      30.04R
SUTTON*          N/A     50 N/A N/A MISG        N/A
GALLUP MILLS*    N/A     36 N/A N/A MISG        N/A
MT. MANSFIELD*   N/A     46 N/A N/A CALM        N/A

_____LAKE CHAMPLAIN_____


CITY           SKY/WX    TMP DP  RH WIND       PRES   REMARKS
BURTON ISLAND*   N/A     54  41  62 S9          N/A
COLCHESTER RF*   N/A     46  37  71 S13         N/A
DIAMOND ISL*     N/A     52  41  66 S3          N/A

$$

NYZ007-026>031-035-052-083-031200-
_____NORTHERN NEW YORK_____


CITY           SKY/WX    TMP DP  RH WIND       PRES   REMARKS
PLATTSBURGH    MOSUNNY   50  40  68 SE3       29.98R
SARANAC LAKE   MOSUNNY   38  34  85 CALM      30.01R
MASSENA        MOSUNNY   53  40  61 SW9       30.00R
OGDENSBURG*    SUNNY     54  39  58 SW8       30.01R
POTSDAM*       SUNNY     55  39  54 SW7       30.01R
STARK FALLS*     N/A     54 N/A N/A SW3         N/A
WATERTOWN      SUNNY     49  36  61 CALM      30.03R
FT DRUM        SUNNY     54  36  49 SW8       30.01R
ALBANY         MOSUNNY   51  42  71 S3        30.05R
GLENS FALLS    PTSUNNY   46  39  76 CALM      30.03R

$$
NHZ002-005-011-031200-
_____NEW HAMPSHIRE_____


CITY           SKY/WX    TMP DP  RH WIND       PRES   REMARKS
LEBANON        SUNNY     43  39  86 CALM      30.03R
KEENE          SUNNY     45  39  81 CALM      30.06R
MT WASHINGTON  MOSUNNY   37  27  65 NW25        N/A
PLYMOUTH         N/A     39  39 100 CALM      30.04R
WHITEFIELD     SUNNY     34  31  88 CALM      30.03R

$$

_____REGIONAL QUEBEC LOCATIONS_____


CITY           SKY/WX    TMP DP  RH WIND       PRES   REMARKS
MONTREAL       PTSUNNY   55  41  58 W6        29.97R
QUEBEC CITY    MOSUNNY   43  39  87 NE9       30.01R
SHERBROOKE     MOSUNNY   41  34  75 VRB2      30.00R

_____REGIONAL ONTARIO LOCATIONS_____


CITY           SKY/WX    TMP DP  RH WIND       PRES   REMARKS
OTTAWA         MOSUNNY   52  41  66 W6        29.98R

______KEY______
VSB  - VISIBILITY IN MILES
WCI  - WIND CHILL INDEX
HX   - HEAT INDEX
$$
NNNN


USA.gov is the U.S. government's official web portal to all federal, state and local government web resources and services.